"read_dt","SO2 (ppb)","flags","PMT voltage (V)","lamp voltage (V)","lamp intensity (Hz)","internal temp (C)","react chamber temp (C)","sample flow (l/min)","pres (mmHg)","SO2 bkg (ppb)","SO2 coefficient"
2015-11-27 00:00:00,1678E-3,5C000400,-0724,0831,12304,027.0,045.4,0.258,758.9,01.16,0.508
2015-11-27 00:01:00,1864E-3,5C000400,-0724,0831,12199,027.0,045.4,0.258,758.7,01.16,0.508
2015-11-27 00:02:00,1786E-3,5C000400,-0724,0831,12065,027.0,045.4,0.258,758.6,01.16,0.508
2015-11-27 00:03:00,1842E-3,5C000400,-0724,0831,12231,027.0,045.4,0.258,758.6,01.16,0.508
2015-11-27 00:04:00,1819E-3,5C000400,-0724,0831,12199,027.0,045.4,0.258,758.8,01.16,0.508
2015-11-27 00:05:00,1814E-3,5C000400,-0724,0831,12152,027.0,045.4,0.258,758.6,01.16,0.508
2015-11-27 00:06:00,1753E-3,5C000400,-0724,0830,12238,027.0,045.4,0.258,758.5,01.16,0.508
2015-11-27 00:07:00,1810E-3,5C000400,-0724,0832,12267,027.0,045.4,0.258,758.7,01.16,0.508
2015-11-27 00:08:00,1767E-3,5C000400,-0724,0832,12128,027.0,045.4,0.257,758.8,01.16,0.508
2015-11-27 00:09:00,1850E-3,5C000400,-0724,0831,12134,027.0,045.4,0.258,758.8,01.16,0.508
2015-11-27 00:10:00,1786E-3,5C000400,-0724,0831,12230,027.0,045.4,0.258,758.7,01.16,0.508
2015-11-27 00:11:00,1877E-3,5C000400,-0724,0831,12198,027.0,045.4,0.258,758.9,01.16,0.508
2015-11-27 00:12:00,1800E-3,5C000400,-0724,0831,12203,027.0,045.4,0.258,758.8,01.16,0.508
2015-11-27 00:13:00,1803E-3,5C000400,-0724,0831,12193,027.0,045.4,0.258,758.9,01.16,0.508
2015-11-27 00:14:00,1723E-3,5C000400,-0724,0831,12235,027.0,045.4,0.258,758.8,01.16,0.508
2015-11-27 00:15:00,1823E-3,5C000400,-0724,0831,12229,027.0,045.4,0.258,758.7,01.16,0.508
2015-11-27 00:16:00,1675E-3,5C000400,-0724,0831,12134,027.0,045.4,0.258,758.8,01.16,0.508
2015-11-27 00:17:00,1767E-3,5C000400,-0724,0831,12168,027.0,045.4,0.258,758.8,01.16,0.508
2015-11-27 00:18:00,1866E-3,5C000400,-0724,0831,11984,027.0,045.4,0.258,758.8,01.16,0.508
2015-11-27 00:19:00,1862E-3,5C000400,-0724,0831,12053,027.0,045.4,0.258,758.9,01.16,0.508
2015-11-27 00:20:00,1827E-3,5C000400,-0724,0832,12215,027.0,045.4,0.258,759.0,01.16,0.508
2015-11-27 00:21:00,1694E-3,5C000400,-0724,0831,12173,027.0,045.4,0.258,758.9,01.16,0.508
2015-11-27 00:22:00,1892E-3,5C000400,-0724,0831,12291,027.0,045.4,0.258,758.6,01.16,0.508
2015-11-27 00:23:00,1891E-3,5C000400,-0724,0831,12258,027.0,045.4,0.258,758.6,01.16,0.508
2015-11-27 00:24:00,1823E-3,5C000400,-0724,0831,12248,027.0,045.4,0.258,758.6,01.16,0.508
2015-11-27 00:25:00,1750E-3,5C000400,-0724,0831,12193,027.0,045.4,0.258,758.5,01.16,0.508
2015-11-27 00:26:00,1848E-3,5C000400,-0724,0831,12223,027.0,045.4,0.258,758.6,01.16,0.508
2015-11-27 00:27:00,1755E-3,5C000400,-0724,0832,12126,027.0,045.4,0.257,758.8,01.16,0.508
2015-11-27 00:28:00,1842E-3,5C000400,-0724,0831,12312,027.0,045.4,0.258,758.5,01.16,0.508
2015-11-27 00:29:00,1886E-3,5C000400,-0724,0832,12223,027.0,045.4,0.258,758.7,01.16,0.508
2015-11-27 00:30:00,1797E-3,5C000400,-0724,0831,12175,027.0,045.4,0.258,758.7,01.16,0.508
2015-11-27 00:31:00,1693E-3,5C000400,-0724,0832,12178,027.0,045.4,0.258,758.7,01.16,0.508
2015-11-27 00:32:00,1851E-3,5C000400,-0724,0831,12167,027.0,045.4,0.258,758.7,01.16,0.508
2015-11-27 00:33:00,1909E-3,5C000400,-0724,0831,12124,027.0,045.4,0.258,758.6,01.16,0.508
2015-11-27 00:34:00,1871E-3,5C000400,-0724,0831,12184,027.0,045.4,0.258,758.7,01.16,0.508
2015-11-27 00:35:00,1625E-3,5C000400,-0724,0832,12232,027.0,045.4,0.258,758.7,01.16,0.508
2015-11-27 00:36:00,1822E-3,5C000400,-0724,0832,12115,027.0,045.4,0.258,759.0,01.16,0.508
2015-11-27 00:37:00,1835E-3,5C000400,-0724,0831,12232,027.0,045.4,0.257,758.6,01.16,0.508
2015-11-27 00:38:00,1853E-3,5C000400,-0724,0831,12153,027.0,045.4,0.258,758.9,01.16,0.508
2015-11-27 00:39:00,1790E-3,5C000400,-0724,0831,12238,027.0,045.4,0.258,758.8,01.16,0.508
2015-11-27 00:40:00,1722E-3,5C000400,-0724,0831,12336,027.0,045.4,0.258,758.9,01.16,0.508
2015-11-27 00:41:00,1743E-3,5C000400,-0724,0831,12215,027.0,045.4,0.257,758.7,01.16,0.508
2015-11-27 00:42:00,1754E-3,5C000400,-0724,0831,12315,027.0,045.4,0.258,758.7,01.16,0.508
2015-11-27 00:43:00,1833E-3,5C000400,-0724,0831,12213,027.0,045.4,0.258,758.6,01.16,0.508
2015-11-27 00:44:00,1764E-3,5C000400,-0724,0832,12123,027.0,045.4,0.258,758.6,01.16,0.508
2015-11-27 00:45:00,1773E-3,5C000400,-0724,0831,12080,027.0,045.4,0.257,758.7,01.16,0.508
2015-11-27 00:46:00,1842E-3,5C000400,-0724,0831,12334,027.0,045.4,0.258,758.9,01.16,0.508
2015-11-27 00:47:00,1768E-3,5C000400,-0724,0831,12279,027.0,045.4,0.258,758.9,01.16,0.508
2015-11-27 00:48:00,1836E-3,5C000400,-0724,0831,12251,027.0,045.4,0.258,758.8,01.16,0.508
2015-11-27 00:49:00,1823E-3,5C000400,-0724,0831,12166,027.0,045.4,0.257,759.0,01.16,0.508
2015-11-27 00:50:00,1926E-3,5C000400,-0724,0831,12201,027.0,045.4,0.258,759.1,01.16,0.508
2015-11-27 00:51:00,1901E-3,5C000400,-0724,0832,12002,027.0,045.4,0.258,758.9,01.16,0.508
2015-11-27 00:52:00,1863E-3,5C000400,-0724,0831,12270,027.0,045.4,0.258,758.9,01.16,0.508
2015-11-27 00:53:00,1782E-3,5C000400,-0724,0832,12121,027.0,045.4,0.257,758.9,01.16,0.508
2015-11-27 00:54:00,1884E-3,5C000400,-0724,0831,12292,027.0,045.4,0.258,758.9,01.16,0.508
2015-11-27 00:55:00,1823E-3,5C000400,-0724,0831,12245,027.0,045.4,0.258,759.0,01.16,0.508
2015-11-27 00:56:00,1743E-3,5C000400,-0724,0831,12134,027.0,045.4,0.258,759.1,01.16,0.508
2015-11-27 00:57:00,1785E-3,5C000400,-0724,0831,12109,027.0,045.4,0.257,759.1,01.16,0.508
2015-11-27 00:58:00,1833E-3,5C000400,-0724,0832,12175,027.0,045.4,0.257,759.0,01.16,0.508
2015-11-27 00:59:00,1743E-3,5C000400,-0724,0831,12181,027.0,045.4,0.258,759.0,01.16,0.508
2015-11-27 01:00:00,1649E-3,5C000400,-0724,0831,12307,027.0,045.4,0.258,759.0,01.16,0.508
2015-11-27 01:01:00,1823E-3,5C000400,-0724,0831,12214,027.0,045.4,0.258,758.3,01.16,0.508
2015-11-27 01:02:00,1652E-3,5C000400,-0724,0831,12163,027.0,045.4,0.258,758.9,01.16,0.508
2015-11-27 01:03:00,1837E-3,5C000400,-0724,0832,12237,027.1,045.4,0.258,758.9,01.16,0.508
2015-11-27 01:04:00,1749E-3,5C000400,-0724,0831,12028,027.0,045.4,0.258,758.6,01.16,0.508
2015-11-27 01:05:00,1821E-3,5C000400,-0724,0832,11969,027.0,045.4,0.258,759.0,01.16,0.508
2015-11-27 01:06:00,1827E-3,5C000400,-0724,0832,12098,027.0,045.4,0.258,759.0,01.16,0.508
2015-11-27 01:07:00,1744E-3,5C000400,-0724,0831,12122,027.0,045.4,0.258,759.2,01.16,0.508
2015-11-27 01:08:00,1743E-3,5C000400,-0724,0832,12185,027.0,045.4,0.257,759.2,01.16,0.508
2015-11-27 01:09:00,1817E-3,5C000400,-0724,0830,12069,027.0,045.4,0.258,759.2,01.16,0.508
2015-11-27 01:10:00,1918E-3,5C000400,-0724,0831,12159,027.0,045.4,0.258,759.3,01.16,0.508
2015-11-27 01:11:00,1836E-3,5C000400,-0724,0832,12214,027.0,045.4,0.258,759.4,01.16,0.508
2015-11-27 01:12:00,1717E-3,5C000400,-0724,0832,12258,027.0,045.4,0.257,759.2,01.16,0.508
2015-11-27 01:13:00,1821E-3,5C000400,-0724,0831,12183,027.0,045.4,0.258,759.3,01.16,0.508
2015-11-27 01:14:00,1770E-3,5C000400,-0724,0831,12124,027.0,045.4,0.258,759.1,01.16,0.508
2015-11-27 01:15:00,1871E-3,5C000400,-0724,0831,12107,027.0,045.4,0.258,759.2,01.16,0.508
2015-11-27 01:16:00,1731E-3,5C000400,-0724,0830,12164,027.0,045.4,0.257,759.4,01.16,0.508
2015-11-27 01:17:00,1792E-3,5C000400,-0724,0831,12254,027.1,045.4,0.258,759.4,01.16,0.508
2015-11-27 01:18:00,1817E-3,5C000400,-0724,0831,12063,027.0,045.4,0.258,759.5,01.16,0.508
2015-11-27 01:19:00,1889E-3,5C000400,-0724,0831,12229,027.1,045.4,0.258,759.3,01.16,0.508
2015-11-27 01:20:00,1727E-3,5C000400,-0724,0831,12226,027.0,045.4,0.257,759.3,01.16,0.508
2015-11-27 01:21:00,1865E-3,5C000400,-0724,0831,12194,027.0,045.4,0.258,759.1,01.16,0.508
2015-11-27 01:22:00,1874E-3,5C000400,-0724,0831,12194,027.0,045.4,0.258,759.4,01.16,0.508
2015-11-27 01:23:00,1805E-3,5C000400,-0724,0831,12306,027.0,045.4,0.258,759.5,01.16,0.508
2015-11-27 01:24:00,1787E-3,5C000400,-0724,0831,12179,027.0,045.4,0.258,759.5,01.16,0.508
2015-11-27 01:25:00,1911E-3,5C000400,-0724,0831,12227,027.0,045.4,0.257,759.4,01.16,0.508
2015-11-27 01:26:00,1842E-3,5C000400,-0724,0831,12243,027.1,045.4,0.258,759.4,01.16,0.508
2015-11-27 01:27:00,1925E-3,5C000400,-0724,0831,12185,027.0,045.4,0.258,759.5,01.16,0.508
2015-11-27 01:28:00,1694E-3,5C000400,-0724,0831,12067,027.1,045.4,0.258,759.6,01.16,0.508
2015-11-27 01:29:00,1640E-3,5C000400,-0724,0831,12271,027.0,045.4,0.258,759.5,01.16,0.508
2015-11-27 01:30:00,1883E-3,5C000400,-0724,0832,12240,027.1,045.4,0.257,759.6,01.16,0.508
2015-11-27 01:31:00,1844E-3,5C000400,-0724,0832,12054,027.1,045.4,0.258,759.3,01.16,0.508
2015-11-27 01:32:00,1761E-3,5C000400,-0724,0830,11993,027.1,045.4,0.258,759.5,01.16,0.508
2015-11-27 01:33:00,1787E-3,5C000400,-0724,0831,12038,027.1,045.4,0.258,759.5,01.16,0.508
2015-11-27 01:34:00,1818E-3,5C000400,-0724,0831,12196,027.1,045.4,0.258,759.3,01.16,0.508
2015-11-27 01:35:00,1665E-3,5C000400,-0724,0831,12135,027.1,045.4,0.258,759.5,01.16,0.508
2015-11-27 01:36:00,1870E-3,5C000400,-0724,0831,12183,027.1,045.4,0.258,759.4,01.16,0.508
2015-11-27 01:37:00,1775E-3,5C000400,-0724,0831,12146,027.0,045.4,0.258,759.6,01.16,0.508
2015-11-27 01:38:00,1766E-3,5C000400,-0724,0831,12253,027.1,045.4,0.257,759.7,01.16,0.508
2015-11-27 01:39:00,1839E-3,5C000400,-0724,0832,12212,027.1,045.4,0.257,759.7,01.16,0.508
2015-11-27 01:40:00,1825E-3,5C000400,-0724,0831,12115,027.1,045.4,0.258,759.8,01.16,0.508
2015-11-27 01:41:00,1723E-3,5C000400,-0724,0832,12272,027.1,045.4,0.258,759.7,01.16,0.508
2015-11-27 01:42:00,1768E-3,5C000400,-0724,0831,12268,027.1,045.4,0.258,759.7,01.16,0.508
2015-11-27 01:43:00,1753E-3,5C000400,-0724,0831,12145,027.1,045.4,0.257,759.7,01.16,0.508
2015-11-27 01:44:00,1741E-3,5C000400,-0724,0831,12120,027.1,045.4,0.257,759.6,01.16,0.508
2015-11-27 01:45:00,1843E-3,5C000400,-0724,0831,12139,027.1,045.4,0.258,759.6,01.16,0.508
2015-11-27 01:46:00,1913E-3,5C000400,-0724,0831,12242,027.1,045.4,0.258,759.6,01.16,0.508
2015-11-27 01:47:00,1888E-3,5C000400,-0724,0831,12164,027.1,045.4,0.258,759.6,01.16,0.508
2015-11-27 01:48:00,1880E-3,5C000400,-0724,0831,12264,027.1,045.4,0.257,759.6,01.16,0.508
2015-11-27 01:49:00,1757E-3,5C000400,-0724,0832,12167,027.1,045.4,0.258,759.5,01.16,0.508
2015-11-27 01:50:00,1831E-3,5C000400,-0724,0831,12181,027.1,045.4,0.258,759.5,01.16,0.508
2015-11-27 01:51:00,1884E-3,5C000400,-0724,0831,12185,027.1,045.4,0.258,759.4,01.16,0.508
2015-11-27 01:52:00,1722E-3,5C000400,-0724,0832,12175,027.1,045.4,0.258,759.4,01.16,0.508
2015-11-27 01:53:00,1852E-3,5C000400,-0724,0831,12196,027.1,045.4,0.257,759.5,01.16,0.508
2015-11-27 01:54:00,1861E-3,5C000400,-0724,0830,12204,027.1,045.4,0.258,759.5,01.16,0.508
2015-11-27 01:55:00,1806E-3,5C000400,-0724,0831,12083,027.1,045.4,0.258,759.5,01.16,0.508
2015-11-27 01:56:00,1678E-3,5C000400,-0724,0832,12235,027.1,045.4,0.258,759.5,01.16,0.508
2015-11-27 01:57:00,1786E-3,5C000400,-0724,0831,12241,027.1,045.4,0.257,759.5,01.16,0.508
2015-11-27 01:58:00,1811E-3,5C000400,-0724,0831,12137,027.1,045.4,0.257,759.4,01.16,0.508
2015-11-27 01:59:00,1769E-3,5C000400,-0724,0831,12278,027.1,045.4,0.258,759.4,01.16,0.508
2015-11-27 02:00:00,1739E-3,5C000400,-0724,0832,12184,027.1,045.4,0.258,759.5,01.16,0.508
2015-11-27 02:01:00,1891E-3,5C000400,-0724,0831,12206,027.1,045.4,0.258,759.3,01.16,0.508
2015-11-27 02:02:00,1805E-3,5C000400,-0724,0831,12307,027.1,045.4,0.257,759.3,01.16,0.508
2015-11-27 02:03:00,1839E-3,5C000400,-0724,0831,12215,027.1,045.4,0.258,759.4,01.16,0.508
2015-11-27 02:04:00,1865E-3,5C000400,-0724,0831,12195,027.1,045.4,0.258,759.4,01.16,0.508
2015-11-27 02:05:00,1789E-3,5C000400,-0724,0831,12181,027.1,045.4,0.258,759.4,01.16,0.508
2015-11-27 02:06:00,1817E-3,5C000400,-0724,0832,12404,027.1,045.4,0.257,759.3,01.16,0.508
2015-11-27 02:07:00,1782E-3,5C000400,-0724,0831,12256,027.2,045.4,0.258,759.3,01.16,0.508
2015-11-27 02:08:00,1781E-3,5C000400,-0724,0830,12224,027.1,045.4,0.258,759.4,01.16,0.508
2015-11-27 02:09:00,1798E-3,5C000400,-0724,0830,12263,027.2,045.4,0.258,759.4,01.16,0.508
2015-11-27 02:10:00,1848E-3,5C000400,-0724,0831,12163,027.2,045.4,0.257,759.1,01.16,0.508
2015-11-27 02:11:00,1857E-3,5C000400,-0724,0830,12074,027.1,045.4,0.258,759.3,01.16,0.508
2015-11-27 02:12:00,1922E-3,5C000400,-0724,0832,12129,027.1,045.4,0.258,759.3,01.16,0.508
2015-11-27 02:13:00,1976E-3,5C000400,-0724,0831,12136,027.1,045.4,0.258,759.3,01.16,0.508
2015-11-27 02:14:00,1790E-3,5C000400,-0724,0831,12133,027.1,045.4,0.257,759.4,01.16,0.508
2015-11-27 02:15:00,1766E-3,5C000400,-0724,0832,12225,027.1,045.4,0.258,759.3,01.16,0.508
2015-11-27 02:16:00,1985E-3,5C000400,-0724,0831,12217,027.2,045.4,0.258,759.3,01.16,0.508
2015-11-27 02:17:00,1815E-3,5C000400,-0724,0832,12265,027.2,045.4,0.258,759.4,01.16,0.508
2015-11-27 02:18:00,1789E-3,5C000400,-0724,0831,12233,027.2,045.4,0.257,759.5,01.16,0.508
2015-11-27 02:19:00,1850E-3,5C000400,-0724,0832,12189,027.1,045.4,0.258,759.4,01.16,0.508
2015-11-27 02:20:00,1775E-3,5C000400,-0724,0831,12143,027.2,045.4,0.258,759.3,01.16,0.508
2015-11-27 02:21:00,1816E-3,5C000400,-0724,0831,12076,027.2,045.4,0.258,759.4,01.16,0.508
2015-11-27 02:22:00,1816E-3,5C000400,-0724,0831,12297,027.1,045.4,0.257,759.3,01.16,0.508
2015-11-27 02:23:00,1798E-3,5C000400,-0724,0832,12262,027.2,045.4,0.257,759.4,01.16,0.508
2015-11-27 02:24:00,1764E-3,5C000400,-0724,0832,12203,027.1,045.4,0.258,759.3,01.16,0.508
2015-11-27 02:25:00,1907E-3,5C000400,-0724,0832,12195,027.2,045.4,0.258,759.4,01.16,0.508
2015-11-27 02:26:00,1890E-3,5C000400,-0724,0832,12253,027.1,045.4,0.257,759.5,01.16,0.508
2015-11-27 02:27:00,1794E-3,5C000400,-0724,0832,11993,027.1,045.4,0.257,759.5,01.16,0.508
2015-11-27 02:28:00,1762E-3,5C000400,-0724,0831,12195,027.1,045.4,0.258,759.4,01.16,0.508
2015-11-27 02:29:00,1675E-3,5C000400,-0724,0831,12048,027.1,045.4,0.258,759.5,01.16,0.508
2015-11-27 02:30:00,1682E-3,5C000400,-0724,0831,12166,027.2,045.4,0.258,759.4,01.16,0.508
2015-11-27 02:31:00,1816E-3,5C000400,-0724,0831,12159,027.1,045.4,0.257,759.4,01.16,0.508
2015-11-27 02:32:00,1774E-3,5C000400,-0724,0831,12332,027.2,045.4,0.258,759.4,01.16,0.508
2015-11-27 02:33:00,1774E-3,5C000400,-0724,0831,12123,027.1,045.4,0.258,759.3,01.16,0.508
2015-11-27 02:34:00,1720E-3,5C000400,-0724,0832,12183,027.2,045.4,0.257,759.3,01.16,0.508
2015-11-27 02:35:00,1827E-3,5C000400,-0724,0831,12077,027.2,045.4,0.257,759.4,01.16,0.508
2015-11-27 02:36:00,1762E-3,5C000400,-0724,0831,12135,027.1,045.4,0.258,759.4,01.16,0.508
2015-11-27 02:37:00,1640E-3,5C000400,-0724,0832,12232,027.1,045.4,0.258,759.4,01.16,0.508
2015-11-27 02:38:00,1809E-3,5C000400,-0724,0831,12231,027.2,045.4,0.257,759.5,01.16,0.508
2015-11-27 02:39:00,1840E-3,5C000400,-0724,0831,12220,027.2,045.4,0.257,759.5,01.16,0.508
2015-11-27 02:40:00,1751E-3,5C000400,-0724,0831,12208,027.2,045.4,0.258,759.4,01.16,0.508
2015-11-27 02:41:00,1766E-3,5C000400,-0724,0831,12281,027.2,045.4,0.258,759.5,01.16,0.508
2015-11-27 02:42:00,1686E-3,5C000400,-0724,0832,12198,027.2,045.4,0.258,759.6,01.16,0.508
2015-11-27 02:43:00,1780E-3,5C000400,-0724,0831,12185,027.2,045.4,0.257,759.5,01.16,0.508
2015-11-27 02:44:00,1834E-3,5C000400,-0724,0830,12181,027.2,045.4,0.257,759.5,01.16,0.508
2015-11-27 02:45:00,1736E-3,5C000400,-0724,0830,12153,027.2,045.4,0.258,759.5,01.16,0.508
2015-11-27 02:46:00,1767E-3,5C000400,-0724,0831,12197,027.2,045.4,0.258,759.5,01.16,0.508
2015-11-27 02:47:00,1864E-3,5C000400,-0724,0831,12194,027.1,045.4,0.257,759.6,01.16,0.508
2015-11-27 02:48:00,1751E-3,5C000400,-0724,0832,12191,027.2,045.4,0.257,759.6,01.16,0.508
2015-11-27 02:49:00,1834E-3,5C000400,-0724,0831,12218,027.2,045.4,0.257,759.5,01.16,0.508
2015-11-27 02:50:00,1736E-3,5C000400,-0724,0831,12229,027.2,045.4,0.258,759.6,01.16,0.508
2015-11-27 02:51:00,1787E-3,5C000400,-0724,0832,12170,027.2,045.4,0.258,759.6,01.16,0.508
2015-11-27 02:52:00,1771E-3,5C000400,-0724,0831,12232,027.2,045.4,0.257,759.6,01.16,0.508
2015-11-27 02:53:00,1813E-3,5C000400,-0724,0831,12171,027.2,045.4,0.257,759.6,01.16,0.508
2015-11-27 02:54:00,1730E-3,5C000400,-0724,0831,12059,027.2,045.4,0.257,759.6,01.16,0.508
2015-11-27 02:55:00,1889E-3,5C000400,-0724,0831,12085,027.2,045.4,0.258,759.5,01.16,0.508
2015-11-27 02:56:00,1737E-3,5C000400,-0724,0832,12098,027.2,045.4,0.257,759.5,01.16,0.508
2015-11-27 02:57:00,1809E-3,5C000400,-0724,0831,12232,027.2,045.4,0.257,759.5,01.16,0.508
2015-11-27 02:58:00,1819E-3,5C000400,-0724,0832,12159,027.2,045.4,0.257,759.5,01.16,0.508
2015-11-27 02:59:00,1754E-3,5C000400,-0724,0832,12204,027.2,045.4,0.257,759.4,01.16,0.508
2015-11-27 03:00:00,1966E-3,5C000400,-0724,0831,12241,027.2,045.4,0.258,759.5,01.16,0.508
2015-11-27 03:01:00,1796E-3,5C000400,-0724,0831,12071,027.2,045.4,0.258,759.5,01.16,0.508
2015-11-27 03:02:00,1707E-3,5C000400,-0724,0832,12062,027.2,045.4,0.257,759.4,01.16,0.508
2015-11-27 03:03:00,1792E-3,5C000400,-0724,0831,12319,027.2,045.4,0.257,759.5,01.16,0.508
2015-11-27 03:04:00,1702E-3,5C000400,-0724,0832,12148,027.2,045.4,0.258,759.5,01.16,0.508
2015-11-27 03:05:00,1822E-3,5C000400,-0724,0831,12046,027.2,045.4,0.258,759.4,01.16,0.508
2015-11-27 03:06:00,1815E-3,5C000400,-0724,0831,12212,027.2,045.4,0.257,759.3,01.16,0.508
2015-11-27 03:07:00,1787E-3,5C000400,-0724,0832,12207,027.2,045.4,0.257,759.0,01.16,0.508
2015-11-27 03:08:00,1816E-3,5C000400,-0724,0831,12196,027.2,045.4,0.258,759.3,01.16,0.508
2015-11-27 03:09:00,1868E-3,5C000400,-0724,0832,12272,027.2,045.4,0.258,759.2,01.16,0.508
2015-11-27 03:10:00,1718E-3,5C000400,-0724,0831,12195,027.2,045.4,0.257,759.3,01.16,0.508
2015-11-27 03:11:00,1733E-3,5C000400,-0724,0831,12146,027.2,045.4,0.257,759.3,01.16,0.508
2015-11-27 03:12:00,1846E-3,5C000400,-0724,0831,12264,027.2,045.4,0.257,759.2,01.16,0.508
2015-11-27 03:13:00,1735E-3,5C000400,-0724,0832,12356,027.2,045.4,0.257,759.1,01.16,0.508
2015-11-27 03:14:00,1801E-3,5C000400,-0724,0831,12121,027.2,045.4,0.258,759.4,01.16,0.508
2015-11-27 03:15:00,1749E-3,5C000400,-0724,0832,12160,027.2,045.4,0.257,759.5,01.16,0.508
2015-11-27 03:16:00,1844E-3,5C000400,-0724,0831,12162,027.2,045.4,0.257,759.3,01.16,0.508
2015-11-27 03:17:00,1785E-3,5C000400,-0724,0832,12251,027.2,045.4,0.257,759.4,01.16,0.508
2015-11-27 03:18:00,1653E-3,5C000400,-0724,0831,12356,027.2,045.4,0.257,759.3,01.16,0.508
2015-11-27 03:19:00,1705E-3,5C000400,-0724,0832,12294,027.2,045.4,0.257,759.2,01.16,0.508
2015-11-27 03:20:00,1741E-3,5C000400,-0724,0832,12149,027.2,045.4,0.258,759.3,01.16,0.508
2015-11-27 03:21:00,1724E-3,5C000400,-0724,0831,12386,027.2,045.4,0.257,759.3,01.16,0.508
2015-11-27 03:22:00,1899E-3,5C000400,-0724,0832,12193,027.2,045.4,0.257,759.3,01.16,0.508
2015-11-27 03:23:00,1611E-3,5C000400,-0724,0831,12235,027.2,045.4,0.257,759.4,01.16,0.508
2015-11-27 03:24:00,1914E-3,5C000400,-0724,0832,12246,027.2,045.4,0.257,759.4,01.16,0.508
2015-11-27 03:25:00,1854E-3,5C000400,-0724,0831,12139,027.2,045.4,0.258,759.4,01.16,0.508
2015-11-27 03:26:00,1975E-3,5C000400,-0724,0832,12140,027.2,045.4,0.257,759.4,01.16,0.508
2015-11-27 03:27:00,1795E-3,5C000400,-0724,0832,12102,027.3,045.4,0.257,759.4,01.16,0.508
2015-11-27 03:28:00,1767E-3,5C000400,-0724,0831,12184,027.3,045.4,0.257,759.4,01.16,0.508
2015-11-27 03:29:00,1859E-3,5C000400,-0724,0831,12120,027.2,045.4,0.257,759.3,01.16,0.508
2015-11-27 03:30:00,1735E-3,5C000400,-0724,0831,12146,027.3,045.4,0.258,759.3,01.16,0.508
2015-11-27 03:31:00,1743E-3,5C000400,-0724,0831,12099,027.3,045.4,0.258,759.3,01.16,0.508
2015-11-27 03:32:00,1757E-3,5C000400,-0724,0832,12193,027.3,045.4,0.257,759.3,01.16,0.508
2015-11-27 03:33:00,1960E-3,5C000400,-0724,0832,12116,027.3,045.4,0.258,759.3,01.16,0.508
2015-11-27 03:34:00,1875E-3,5C000400,-0724,0832,12188,027.3,045.4,0.258,759.2,01.16,0.508
2015-11-27 03:35:00,1748E-3,5C000400,-0724,0832,12048,027.3,045.4,0.257,759.3,01.16,0.508
2015-11-27 03:36:00,1858E-3,5C000400,-0724,0832,12217,027.3,045.4,0.257,759.3,01.16,0.508
2015-11-27 03:37:00,1686E-3,5C000400,-0724,0832,12032,027.2,045.4,0.257,759.2,01.16,0.508
2015-11-27 03:38:00,1901E-3,5C000400,-0724,0833,12151,027.3,045.4,0.258,759.3,01.16,0.508
2015-11-27 03:39:00,1812E-3,5C000400,-0724,0832,12111,027.3,045.4,0.257,759.3,01.16,0.508
2015-11-27 03:40:00,1859E-3,5C000400,-0724,0831,12242,027.3,045.4,0.257,759.2,01.16,0.508
2015-11-27 03:41:00,1865E-3,5C000400,-0724,0832,12220,027.3,045.4,0.257,759.1,01.16,0.508
2015-11-27 03:42:00,1787E-3,5C000400,-0724,0831,12217,027.3,045.4,0.257,759.3,01.16,0.508
2015-11-27 03:43:00,1736E-3,5C000400,-0724,0832,12200,027.3,045.4,0.258,759.2,01.16,0.508
2015-11-27 03:44:00,1760E-3,5C000400,-0724,0831,12205,027.3,045.4,0.257,759.2,01.16,0.508
2015-11-27 03:45:00,1669E-3,5C000400,-0724,0832,12206,027.3,045.4,0.257,759.1,01.16,0.508
2015-11-27 03:46:00,1821E-3,5C000400,-0724,0832,12102,027.3,045.4,0.257,759.2,01.16,0.508
2015-11-27 03:47:00,1927E-3,5C000400,-0724,0831,12191,027.3,045.4,0.257,759.2,01.16,0.508
2015-11-27 03:48:00,1798E-3,5C000400,-0724,0832,12171,027.3,045.4,0.257,759.1,01.16,0.508
2015-11-27 03:49:00,1794E-3,5C000400,-0724,0831,12243,027.3,045.4,0.257,759.1,01.16,0.508
2015-11-27 03:50:00,1858E-3,5C000400,-0724,0831,12000,027.3,045.4,0.257,759.1,01.16,0.508
2015-11-27 03:51:00,1829E-3,5C000400,-0724,0831,12261,027.3,045.4,0.257,759.1,01.16,0.508
2015-11-27 03:52:00,1802E-3,5C000400,-0724,0831,12038,027.3,045.4,0.257,759.0,01.16,0.508
2015-11-27 03:53:00,1851E-3,5C000400,-0724,0831,12252,027.3,045.4,0.257,759.0,01.16,0.508
2015-11-27 03:54:00,1882E-3,5C000400,-0724,0831,12141,027.3,045.4,0.257,759.1,01.16,0.508
2015-11-27 03:55:00,1771E-3,5C000400,-0724,0831,12144,027.3,045.4,0.257,759.1,01.16,0.508
2015-11-27 03:56:00,1769E-3,5C000400,-0724,0831,12262,027.3,045.4,0.257,759.1,01.16,0.508
2015-11-27 03:57:00,1856E-3,5C000400,-0724,0831,12134,027.3,045.4,0.257,759.2,01.16,0.508
2015-11-27 03:58:00,1882E-3,5C000400,-0724,0832,12352,027.3,045.4,0.257,759.2,01.16,0.508
2015-11-27 03:59:00,1787E-3,5C000400,-0724,0832,12135,027.3,045.4,0.257,759.2,01.16,0.508
2015-11-27 04:00:00,1848E-3,5C000400,-0724,0832,12129,027.3,045.4,0.257,759.1,01.16,0.508
2015-11-27 04:01:00,1770E-3,5C000400,-0724,0831,12182,027.3,045.4,0.257,759.2,01.16,0.508
2015-11-27 04:02:00,1656E-3,5C000400,-0724,0831,12279,027.3,045.4,0.257,759.1,01.16,0.508
2015-11-27 04:03:00,1907E-3,5C000400,-0724,0831,12302,027.3,045.4,0.257,759.1,01.16,0.508
2015-11-27 04:04:00,1776E-3,5C000400,-0724,0831,12206,027.3,045.4,0.257,758.9,01.16,0.508
2015-11-27 04:05:00,1731E-3,5C000400,-0724,0831,12181,027.3,045.4,0.257,758.9,01.16,0.508
2015-11-27 04:06:00,1797E-3,5C000400,-0724,0831,12102,027.3,045.4,0.257,758.8,01.16,0.508
2015-11-27 04:07:00,1764E-3,5C000400,-0724,0832,12186,027.3,045.4,0.257,758.7,01.16,0.508
2015-11-27 04:08:00,1900E-3,5C000400,-0724,0831,12072,027.3,045.4,0.257,758.7,01.16,0.508
2015-11-27 04:09:00,1811E-3,5C000400,-0724,0832,12281,027.3,045.4,0.257,758.8,01.16,0.508
2015-11-27 04:10:00,1918E-3,5C000400,-0724,0830,12204,027.3,045.4,0.257,758.8,01.16,0.508
2015-11-27 04:11:00,1799E-3,5C000400,-0724,0831,12203,027.3,045.4,0.257,759.0,01.16,0.508
2015-11-27 04:12:00,1855E-3,5C000400,-0724,0831,12229,027.4,045.4,0.257,759.1,01.16,0.508
2015-11-27 04:13:00,1906E-3,5C000400,-0724,0832,12217,027.4,045.4,0.257,759.2,01.16,0.508
2015-11-27 04:14:00,1847E-3,5C000400,-0724,0831,12194,027.3,045.4,0.257,759.2,01.16,0.508
2015-11-27 04:15:00,1766E-3,5C000400,-0724,0831,12254,027.3,045.4,0.257,759.2,01.16,0.508
2015-11-27 04:16:00,1800E-3,5C000400,-0724,0832,12168,027.4,045.4,0.257,759.3,01.16,0.508
2015-11-27 04:17:00,1789E-3,5C000400,-0724,0831,12219,027.4,045.4,0.257,759.4,01.16,0.508
2015-11-27 04:18:00,1912E-3,5C000400,-0724,0831,12087,027.4,045.4,0.257,759.3,01.16,0.508
2015-11-27 04:19:00,1737E-3,5C000400,-0724,0832,12182,027.4,045.4,0.257,759.5,01.16,0.508
2015-11-27 04:20:00,1710E-3,5C000400,-0724,0831,12108,027.3,045.4,0.257,759.4,01.16,0.508